Regional Weather Roundup
Issued by NWS

Home | Current Version | Previous Version | Graphics & Text | Print | Product List | Glossary On
Versions: 1 2 3 4 5 6 7 8 9 10 11 12 13 14 15 16 17 18 19 20 21 22 23 24 25 26 27 28 29 30 31 32 33 34 35 36 37 38 39 40 41 42 43 44 45 46 47 48 49 50
000
ASUS43 KMKX 202321
RWRWI

WISCONSIN REGIONAL WEATHER ROUNDUP
NATIONAL WEATHER SERVICE MILWAUKEE/SULLIVAN WI
600 PM CDT MON OCT 20 2014

NOTE: "FAIR" INDICATES FEW OR NO CLOUDS BELOW 12,000 FEET WITH NO
SIGNIFICANT WEATHER AND/OR OBSTRUCTIONS TO VISIBILITY.

WIZ001-002-006>008-014>016-023>028-210000-
NORTHWEST WISCONSIN

CITY           SKY/WX    TMP DP  RH WIND       PRES   REMARKS
SUPERIOR ARPT  CLOUDY    49  39  69 N6        30.06R
ASHLAND        CLOUDY    50  39  66 N7        30.04R
HAYWARD        CLOUDY    50  39  66 VRB3      30.03R
SIREN          CLOUDY    51  38  62 N8        30.05R
CUMBERLAND     CLOUDY    50  37  62 N9        30.03R
RICE LAKE      CLOUDY    51  39  64 N8        30.04R
CHETEK         CLOUDY    51  40  65 N7        30.03R
LADYSMITH      CLOUDY    52  40  65 NW7       30.02R
EAU CLAIRE     PTCLDY    53  38  56 N5        30.01R
MENOMONIE      MOCLDY    55  39  56 NE8       30.01R
NEW RICHMOND   CLEAR     55  40  57 N5        30.02R
OSCEOLA        CLEAR     55  41  58 N7        30.04R
$$

WIZ003>005-009-010-017-018-210000-
NORTH CENTRAL WISCONSIN

CITY           SKY/WX    TMP DP  RH WIND       PRES   REMARKS
MANITOWISH WTR CLOUDY    44  43  95 N5        30.00R
ARBOR VITAE    CLOUDY    46  42  86 NW6       29.99R
WOODRUFF       CLOUDY    46  42  86 NW6       29.99R
RHINELANDER    CLOUDY    44  42  93 N3        29.99R
EAGLE RIVER    CLOUDY    44  41  89 N6        29.98R
LAND O LAKES   CLOUDY    44  41  89 N6        30.00R
PHILLIPS       CLOUDY    48  39  72 N6        29.99R
TOMAHAWK       CLOUDY    46  39  76 CALM      30.00R
MEDFORD        CLOUDY    48  39  71 N6        30.00R
MERRILL        CLOUDY    48  41  75 N9        29.99R
$$

WIZ029-030-035-036-043>047-210000-
CENTRAL WISCONSIN

CITY           SKY/WX    TMP DP  RH WIND       PRES   REMARKS
WAUSAU         CLOUDY    50  39  66 N8        29.97R
MOSINEE        CLOUDY    48  43  81 N7        29.99R
MARSHFIELD     CLOUDY    51  39  63 N6        29.99R
STEVENS POINT  CLOUDY    48  39  69 NW6       29.99R
WAUPACA        CLOUDY    54  44  69 NW5       29.97R
WAUTOMA        CLOUDY    53  42  66 N8        29.98R
WISC RAPIDS    CLOUDY    52  40  63 N8        30.00R
CAMP DOUGLAS   MOCLDY    55  41  58 N8        29.99R
$$

WIZ011>013-019>022-031-037>040-048>050-210000-
NORTHEAST WISCONSIN

CITY           SKY/WX    TMP DP  RH WIND       PRES   REMARKS
ANTIGO         CLOUDY    45  40  85 N12G21    29.98R HAZE
SHAWANO        CLOUDY    53  43  69 NW3       29.96R
OCONTO         CLOUDY    49  44  85 NW6       29.95R
STURGEON BAY   CLOUDY    48  43  81 N14       29.95R
GREEN BAY      CLOUDY    50  44  80 NW3       29.95R
MANITOWOC      LGT RAIN  50  45  83 NW7       29.95R
APPLETON       CLOUDY    52  43  71 NW6       29.96R
CLINTONVILLE   CLOUDY    52  43  71 NW5       29.96R
OSHKOSH        CLOUDY    52  42  69 NW8       29.96R
$$

WIZ032>034-041-042-053>061-210000-
SOUTHWEST WISCONSIN

CITY           SKY/WX    TMP DP  RH WIND       PRES   REMARKS
LA CROSSE      CLEAR     60  41  49 N7        29.97R
SPARTA         CLEAR     55  37  50 N7        29.99R
VIROQUA        CLEAR     54  41  61 N7        29.98R
BOSCOBEL       PTCLDY    61  41  47 N8        29.96R
PRAIRIE DU CHI CLEAR     62  39  43 NW8       29.96R
PLATTEVILLE    CLEAR     59  42  54 N7        29.97R
$$

WIZ056-057-062-063-064-067-068-210000-
SOUTH CENTRAL WISCONSIN

CITY           SKY/WX    TMP DP  RH WIND       PRES   REMARKS
REEDSBURG      CLOUDY    55  40  57 N8        29.97R
BARABOO/DELLS  CLOUDY    55  37  50 N5        29.97R
LONE ROCK      MOCLDY    61  40  45 N8        29.97R
MINERAL POINT  MOCLDY    59  37  44 N8        29.96R
MADISON        CLOUDY    54  42  64 N8        29.97R
MIDDLETON      CLOUDY    56  41  57 N5        29.97R
WATERTOWN      CLOUDY    51  42  70 NW6       29.96R
MONROE         MOCLDY    54  43  66 N7        29.95R
JANESVILLE     CLOUDY    57  39  51 N8        29.95R
$$

WIZ051-052-058>065-066-070>072-210000-
SOUTHEAST WISCONSIN

CITY           SKY/WX    TMP DP  RH WIND       PRES   REMARKS
MILWAUKEE      MOCLDY    54  41  61 NW7       29.94R
WAUKESHA       CLOUDY    50  41  71 NW12      29.96R
MILWAUKEE/TIMM CLOUDY    52  41  66 NW9       29.95R
RACINE         CLOUDY    53  42  66 NW6       29.95R
BURLINGTON     CLOUDY    52  41  67 NW7       29.95R
KENOSHA        CLOUDY    53  43  68 N8        29.95R
FOND DU LAC    CLOUDY    52  42  69 NW8       29.96R
SHEBOYGAN      CLOUDY    52  41  66 NW7       29.94R
WEST BEND      CLOUDY    52  41  66 NW7       29.95R
JUNEAU         CLOUDY    51  41  68 NW8       29.97R
$$

LSZ147-162-210000-
LAKE SUPERIOR

STATION/POSITION TIME  TEMP    WIND        PRES    WAVE
                       AIR SEA DIR/SP/G            HT/PER
                 (UTC) (F)     (DEG/KT/KT) (MB)    (FT/S)
W MID LAKE BUOY  2250   46 46   20/  6/  6 1017.2R   1
DEVILS ISLAND    2300   50     330/ 10/ 12 1017.6R
PORT WING        2240   50     340/  9/ 12 1017.3R
SAXON HARBOR     2200   50      10/  8/ 11 1016.3R
$$

LMZ867-665-643>646-210000-
LAKE MICHIGAN

STATION/POSITION TIME  TEMP    WIND        PRES    WAVE
                       AIR SEA DIR/SP/G            HT/PER
                 (UTC) (F)     (DEG/KT/KT) (MB)    (FT/S)
CHAMBERS ISLAND  2200   50     330/ 15/ 18 1013.2R
N MID LAKE BUOY  2250   47 51  330/ 21/ 23 1012.8R   4/ 5
NORTHPORT PIER   2200   49     340/ 19/ 23 1012.9R
SISTER BAY       2213          360/ 20/ 25   N/A
KEWAUNEE LAKESHO 2300   50     310/  5/  8 1012.8R
SHEBOYGAN LAKESH 2300   52 50  350/  7/  7 1014.3R
PORT WASHINGTON  2240   54     320/  7/ 10 1014.2R
ATWATER BUOY     2300   54     300/  8/ 10 1014.9R
MILWAUKEE LAKESH 2300   54     320/  6/ 11   N/A
S MID LAKE BUOY  2250   53 55  340/ 17/ 19 1013.2R   3/ 4
KENOSHA   LAKESH 2300   53     330/  9/ 11 1013.9R
$$

TC  - TEMPERATURE IN CELSIUS
VSB - VISIBILITY IN STATUTE MILES
WCI - WIND CHILL INDEX
HX  - HEAT INDEX




USA.gov is the U.S. government's official web portal to all federal, state and local government web resources and services.